| time (UTC) | temp F | wind direction | speed knots | gust knots | rain 1hr in | rain 24hr in | rain mn in | humidity % | barometer mb |
| 20260507011005 | 57 | 211 | 0.0 | 2.6 | 0.00 | 0.19 | 0.19 | 91 | 1007.4 |
| 20260507010502 | 57 | 195 | 0.9 | 2.6 | 0.00 | 0.19 | 0.19 | 91 | 1007.4 |
| 20260507010012 | 57 | 194 | 0.0 | 2.6 | 0.00 | 0.19 | 0.19 | 91 | 1007.3 |
| 20260507005503 | 57 | 222 | 0.0 | 2.6 | 0.00 | 0.19 | 0.19 | 91 | 1007.3 |
| 20260507005006 | 56 | 200 | 0.0 | 6.1 | 0.00 | 0.19 | 0.19 | 91 | 1007.4 |
| 20260507004520 | 56 | 200 | 1.7 | 6.1 | 0.00 | 0.19 | 0.19 | 91 | 1007.4 |
| 20260507004010 | 56 | 221 | 0.9 | 5.2 | 0.00 | 0.19 | 0.19 | 91 | 1007.4 |
| 20260507003507 | 56 | 177 | 0.9 | 8.7 | 0.00 | 0.19 | 0.19 | 91 | 1007.6 |
| 20260507003030 | 56 | 144 | 1.7 | 8.7 | 0.00 | 0.19 | 0.19 | 91 | 1007.6 |
| 20260507002506 | 56 | 98 | 0.9 | 3.5 | 0.00 | 0.19 | 0.19 | 91 | 1007.5 |
| 20260507002007 | 56 | 211 | 0.0 | 7.8 | 0.00 | 0.19 | 0.19 | 91 | 1007.5 |
| 20260507001527 | 56 | 207 | 1.7 | 7.8 | 0.00 | 0.19 | 0.19 | 91 | 1007.4 |
| 20260507001012 | 56 | 165 | 1.7 | 7.8 | 0.00 | 0.19 | 0.19 | 91 | 1007.5 |
| 20260507000510 | 56 | 205 | 0.9 | 7.8 | 0.00 | 0.19 | 0.19 | 91 | 1007.4 |
| 20260507000035 | 56 | 297 | 0.9 | 7.0 | 0.00 | 0.19 | 0.19 | 91 | 1007.4 |
| 20260506235503 | 56 | 157 | 1.7 | 6.1 | 0.00 | 0.19 | 0.19 | 91 | 1007.3 |
| 20260506235003 | 56 | 199 | 0.9 | 4.3 | 0.00 | 0.19 | 0.19 | 90 | 1007.3 |
| 20260506234515 | 56 | 228 | 0.0 | 4.3 | 0.01 | 0.19 | 0.19 | 90 | 1007.2 |
| 20260506234006 | 56 | 205 | 0.9 | 4.3 | 0.01 | 0.19 | 0.19 | 90 | 1007.3 |
| 20260506233506 | 56 | 195 | 0.0 | 5.2 | 0.01 | 0.19 | 0.19 | 90 | 1007.2 |
| 20260506233020 | 57 | 195 | 1.7 | 6.1 | 0.02 | 0.19 | 0.19 | 90 | 1007.2 |
| 20260506232506 | 57 | 161 | 0.9 | 6.1 | 0.02 | 0.19 | 0.19 | 90 | 1007.1 |
| 20260506232006 | 57 | 218 | 0.0 | 4.3 | 0.02 | 0.19 | 0.19 | 90 | 1007.0 |
| 20260506231523 | 57 | 181 | 0.9 | 4.3 | 0.03 | 0.19 | 0.19 | 90 | 1007.0 |
| 20260506231008 | 57 | 178 | 0.0 | 3.5 | 0.03 | 0.19 | 0.19 | 90 | 1007.1 |
| 20260506230507 | 57 | 167 | 0.0 | 3.5 | 0.03 | 0.19 | 0.19 | 90 | 1007.0 |
| 20260506230026 | 57 | 177 | 0.9 | 3.5 | 0.03 | 0.19 | 0.19 | 90 | 1007.1 |
| 20260506225513 | 57 | 207 | 0.0 | 4.3 | 0.03 | 0.19 | 0.19 | 90 | 1007.1 |
| 20260506225009 | 57 | 226 | 0.9 | 4.3 | 0.03 | 0.19 | 0.19 | 90 | 1007.1 |
| 20260506224526 | 57 | 181 | 0.0 | 3.5 | 0.02 | 0.18 | 0.18 | 90 | 1007.0 |
| 20260506224004 | 57 | 169 | 0.0 | 4.3 | 0.02 | 0.18 | 0.18 | 90 | 1007.0 |
| 20260506223502 | 57 | 180 | 0.0 | 4.3 | 0.02 | 0.18 | 0.18 | 89 | 1007.0 |
| 20260506223015 | 57 | 194 | 0.0 | 3.5 | 0.01 | 0.17 | 0.17 | 89 | 1007.0 |
| 20260506222506 | 57 | 194 | 0.0 | 3.5 | 0.01 | 0.17 | 0.17 | 89 | 1007.0 |
| 20260506222006 | 57 | 157 | 0.0 | 3.5 | 0.02 | 0.17 | 0.17 | 89 | 1007.0 |
| 20260506221522 | 57 | 208 | 0.0 | 3.5 | 0.01 | 0.16 | 0.16 | 89 | 1007.0 |
| 20260506221014 | 57 | 199 | 0.0 | 4.3 | 0.01 | 0.16 | 0.16 | 89 | 1006.8 |
| 20260506220508 | 57 | 180 | 0.9 | 4.3 | 0.02 | 0.16 | 0.16 | 89 | 1007.1 |
| 20260506220036 | 57 | 209 | 0.0 | 4.3 | 0.02 | 0.16 | 0.16 | 89 | 1006.9 |
| 20260506215511 | 57 | 195 | 0.9 | 4.3 | 0.03 | 0.16 | 0.16 | 89 | 1006.9 |
| 20260506215008 | 57 | 216 | 0.0 | 5.2 | 0.04 | 0.16 | 0.16 | 89 | 1006.8 |
| 20260506214528 | 57 | 204 | 0.9 | 5.2 | 0.05 | 0.16 | 0.16 | 89 | 1006.8 |
| 20260506214009 | 57 | 162 | 0.0 | 4.3 | 0.06 | 0.16 | 0.16 | 89 | 1007.0 |
| 20260506213511 | 57 | 204 | 0.0 | 7.0 | 0.06 | 0.16 | 0.16 | 89 | 1007.0 |
| 20260506213026 | 57 | 171 | 0.0 | 7.0 | 0.06 | 0.16 | 0.16 | 89 | 1007.1 |
| 20260506212505 | 57 | 168 | 0.0 | 0.9 | 0.06 | 0.16 | 0.16 | 89 | 1007.1 |
| 20260506212010 | 57 | 196 | 0.0 | 0.9 | 0.05 | 0.15 | 0.15 | 89 | 1007.1 |
| 20260506211514 | 57 | 243 | 0.0 | 5.2 | 0.05 | 0.15 | 0.15 | 89 | 1007.1 |
| 20260506211006 | 57 | 205 | 0.0 | 7.8 | 0.06 | 0.15 | 0.15 | 88 | 1007.2 |
| 20260506210510 | 57 | 216 | 0.0 | 7.8 | 0.05 | 0.14 | 0.14 | 88 | 1007.3 |
| 20260506210022 | 57 | 190 | 0.0 | 6.1 | 0.05 | 0.14 | 0.14 | 88 | 1007.4 |
| 20260506205505 | 57 | 190 | 1.7 | 7.0 | 0.05 | 0.13 | 0.13 | 88 | 1007.4 |
| 20260506205010 | 57 | 190 | 0.9 | 7.0 | 0.04 | 0.12 | 0.12 | 87 | 1007.5 |
| 20260506204528 | 57 | 188 | 0.0 | 6.1 | 0.03 | 0.11 | 0.11 | 87 | 1007.6 |
| 20260506204009 | 57 | 161 | 1.7 | 6.1 | 0.02 | 0.10 | 0.10 | 87 | 1007.6 |
| 20260506203513 | 57 | 190 | 0.0 | 6.1 | 0.02 | 0.10 | 0.10 | 87 | 1007.6 |
| 20260506203032 | 57 | 211 | 0.9 | 4.3 | 0.02 | 0.10 | 0.10 | 87 | 1007.6 |
| 20260506202510 | 57 | 161 | 0.9 | 4.3 | 0.02 | 0.10 | 0.10 | 87 | 1007.6 |
| 20260506202012 | 57 | 198 | 0.9 | 4.3 | 0.02 | 0.10 | 0.10 | 87 | 1007.5 |
| 20260506201531 | 57 | 182 | 0.0 | 6.1 | 0.02 | 0.10 | 0.10 | 87 | 1007.6 |
| 20260506201009 | 57 | 155 | 1.7 | 7.0 | 0.01 | 0.09 | 0.09 | 87 | 1007.7 |
| 20260506200512 | 57 | 223 | 0.0 | 7.0 | 0.01 | 0.09 | 0.09 | 86 | 1007.7 |
| 20260506200017 | 57 | 200 | 1.7 | 6.1 | 0.02 | 0.09 | 0.09 | 86 | 1007.8 |
| 20260506195506 | 57 | 158 | 1.7 | 8.7 | 0.01 | 0.08 | 0.08 | 86 | 1007.9 |
| 20260506195011 | 57 | 199 | 0.0 | 9.6 | 0.01 | 0.08 | 0.08 | 86 | 1008.0 |
| 20260506194527 | 57 | 145 | 2.6 | 9.6 | 0.02 | 0.08 | 0.08 | 86 | 1008.0 |
| 20260506194009 | 57 | 234 | 0.9 | 8.7 | 0.02 | 0.08 | 0.08 | 86 | 1008.2 |
| 20260506193508 | 57 | 202 | 0.0 | 9.6 | 0.02 | 0.08 | 0.08 | 86 | 1008.2 |
| 20260506193024 | 57 | 202 | 1.7 | 9.6 | 0.02 | 0.08 | 0.08 | 86 | 1008.2 |
| 20260506192511 | 57 | 223 | 1.7 | 10.4 | 0.03 | 0.08 | 0.08 | 86 | 1008.3 |
| 20260506192013 | 57 | 197 | 3.5 | 10.4 | 0.04 | 0.08 | 0.08 | 86 | 1008.3 |
| 20260506191528 | 57 | 142 | 0.0 | 7.0 | 0.04 | 0.08 | 0.08 | 85 | 1008.1 |
| 20260506191010 | 57 | 189 | 3.5 | 7.0 | 0.05 | 0.08 | 0.08 | 85 | 1008.2 |
| 20260506190512 | 57 | 182 | 1.7 | 7.0 | 0.06 | 0.08 | 0.08 | 85 | 1008.4 |
| 20260506190030 | 57 | 175 | 2.6 | 7.0 | 0.05 | 0.07 | 0.07 | 85 | 1008.5 |
| 20260506185509 | 57 | 196 | 0.9 | 8.7 | 0.06 | 0.07 | 0.07 | 85 | 1008.7 |
| 20260506185009 | 57 | 202 | 2.6 | 10.4 | 0.06 | 0.07 | 0.07 | 85 | 1008.5 |
| 20260506184520 | 58 | 225 | 0.9 | 10.4 | 0.06 | 0.06 | 0.06 | 84 | 1008.3 |
| 20260506184010 | 58 | 169 | 0.0 | 8.7 | 0.06 | 0.06 | 0.06 | 84 | 1008.2 |
| 20260506183513 | 58 | 198 | 0.0 | 8.7 | 0.06 | 0.06 | 0.06 | 84 | 1008.2 |
| 20260506183023 | 58 | 190 | 0.0 | 8.7 | 0.06 | 0.06 | 0.06 | 84 | 1008.3 |
| 20260506182509 | 58 | 182 | 0.9 | 8.7 | 0.05 | 0.05 | 0.05 | 83 | 1008.5 |
| 20260506182009 | 59 | 53 | 1.7 | 7.0 | 0.04 | 0.04 | 0.04 | 83 | 1008.6 |
| 20260506181508 | 59 | 196 | 0.9 | 7.8 | 0.04 | 0.04 | 0.04 | 83 | 1008.7 |
| 20260506181008 | 59 | 128 | 0.9 | 7.8 | 0.03 | 0.03 | 0.03 | 82 | 1008.9 |
| 20260506180506 | 60 | 194 | 1.7 | 9.6 | 0.02 | 0.02 | 0.02 | 81 | 1009.0 |
| 20260506180012 | 60 | 182 | 0.9 | 10.4 | 0.02 | 0.02 | 0.02 | 81 | 1009.1 |
| 20260506175504 | 60 | 113 | 1.7 | 10.4 | 0.01 | 0.01 | 0.01 | 81 | 1009.2 |
| 20260506175003 | 61 | 188 | 1.7 | 6.1 | 0.01 | 0.01 | 0.01 | 80 | 1009.2 |
| 20260506174512 | 61 | 182 | 0.9 | 7.8 | 0.00 | 0.00 | 0.00 | 79 | 1009.3 |
| 20260506174003 | 61 | 167 | 0.9 | 8.7 | 0.00 | 0.00 | 0.00 | 79 | 1009.3 |
| 20260506173502 | 62 | 186 | 3.5 | 8.7 | 0.00 | 0.00 | 0.00 | 78 | 1009.3 |
| 20260506173012 | 62 | 201 | 1.7 | 10.4 | 0.00 | 0.00 | 0.00 | 77 | 1009.4 |
| 20260506172503 | 63 | 169 | 0.9 | 10.4 | 0.00 | 0.00 | 0.00 | 75 | 1009.4 |
| 20260506172003 | 63 | 208 | 0.9 | 10.4 | 0.00 | 0.00 | 0.00 | 74 | 1009.6 |
| 20260506171510 | 63 | 172 | 2.6 | 10.4 | 0.00 | 0.00 | 0.00 | 73 | 1009.5 |
| 20260506171003 | 64 | 181 | 3.5 | 10.4 | 0.00 | 0.00 | 0.00 | 72 | 1009.6 |
| 20260506170505 | 64 | 162 | 3.5 | 14.8 | 0.00 | 0.00 | 0.00 | 71 | 1009.6 |
| 20260506170012 | 65 | 263 | 3.5 | 14.8 | 0.00 | 0.00 | 0.00 | 70 | 1009.5 |
| 20260506165503 | 65 | 142 | 3.5 | 12.2 | 0.00 | 0.00 | 0.00 | 70 | 1009.4 |
| 20260506165003 | 65 | 238 | 4.3 | 12.2 | 0.00 | 0.00 | 0.00 | 70 | 1009.5 |
| 20260506164510 | 66 | 180 | 2.6 | 11.3 | 0.00 | 0.00 | 0.00 | 69 | 1009.2 |
| 20260506164003 | 66 | 153 | 5.2 | 12.2 | 0.00 | 0.00 | 0.00 | 69 | 1009.3 |
| 20260506163503 | 66 | 200 | 4.3 | 12.2 | 0.00 | 0.00 | 0.00 | 69 | 1009.3 |
| 20260506163030 | 66 | 157 | 6.1 | 11.3 | 0.00 | 0.00 | 0.00 | 68 | 1009.3 |
| 20260506162504 | 67 | 144 | 3.5 | 11.3 | 0.00 | 0.00 | 0.00 | 68 | 1009.3 |
| 20260506162005 | 67 | 179 | 4.3 | 15.6 | 0.00 | 0.00 | 0.00 | 67 | 1009.5 |
| 20260506161511 | 67 | 178 | 3.5 | 15.6 | 0.00 | 0.00 | 0.00 | 67 | 1009.5 |
| 20260506161004 | 67 | 113 | 6.1 | 15.6 | 0.00 | 0.00 | 0.00 | 66 | 1009.6 |
| 20260506160506 | 67 | 142 | 4.3 | 15.6 | 0.00 | 0.00 | 0.00 | 67 | 1009.7 |
| 20260506160018 | 67 | 157 | 2.6 | 13.0 | 0.00 | 0.00 | 0.00 | 66 | 1009.7 |
| 20260506155503 | 68 | 142 | 4.3 | 10.4 | 0.00 | 0.00 | 0.00 | 65 | 1009.6 |
| 20260506155005 | 68 | 138 | 0.9 | 11.3 | 0.00 | 0.00 | 0.00 | 66 | 1009.7 |
| 20260506154510 | 67 | 187 | 3.5 | 11.3 | 0.00 | 0.00 | 0.00 | 66 | 1009.6 |
| 20260506154008 | 68 | 214 | 1.7 | 11.3 | 0.00 | 0.00 | 0.00 | 66 | 1009.7 |
| 20260506153503 | 68 | 178 | 3.5 | 11.3 | 0.00 | 0.00 | 0.00 | 66 | 1009.7 |
| 20260506153020 | 68 | 159 | 3.5 | 10.4 | 0.00 | 0.00 | 0.00 | 65 | 1009.7 |
| 20260506152506 | 68 | 169 | 3.5 | 11.3 | 0.00 | 0.00 | 0.00 | 64 | 1009.7 |
| 20260506152014 | 69 | 198 | 0.9 | 11.3 | 0.00 | 0.00 | 0.00 | 65 | 1009.6 |
| 20260506151517 | 69 | 162 | 2.6 | 11.3 | 0.00 | 0.00 | 0.00 | 64 | 1009.8 |
| 20260506151004 | 69 | 192 | 1.7 | 11.3 | 0.00 | 0.00 | 0.00 | 64 | 1009.9 |
| 20260506150506 | 68 | 132 | 1.7 | 13.0 | 0.00 | 0.00 | 0.00 | 66 | 1009.9 |
| 20260506150014 | 68 | 186 | 4.3 | 13.9 | 0.00 | 0.00 | 0.00 | 65 | 1010.0 |
| 20260506145508 | 68 | 196 | 2.6 | 13.9 | 0.00 | 0.00 | 0.00 | 65 | 1010.1 |
| 20260506145005 | 68 | 178 | 0.9 | 13.0 | 0.00 | 0.00 | 0.00 | 66 | 1010.1 |
| 20260506144510 | 68 | 180 | 5.2 | 14.8 | 0.00 | 0.00 | 0.00 | 66 | 1009.9 |
| 20260506144004 | 68 | 168 | 6.1 | 13.9 | 0.00 | 0.00 | 0.00 | 65 | 1010.0 |
| 20260506143506 | 68 | 146 | 5.2 | 13.0 | 0.00 | 0.00 | 0.00 | 66 | 1010.1 |
| 20260506143017 | 67 | 175 | 3.5 | 13.0 | 0.00 | 0.00 | 0.00 | 68 | 1010.2 |
| 20260506142508 | 66 | 169 | 4.3 | 13.0 | 0.00 | 0.00 | 0.00 | 68 | 1010.3 |
| 20260506142006 | 66 | 171 | 4.3 | 9.6 | 0.00 | 0.00 | 0.00 | 69 | 1010.3 |
| 20260506141515 | 66 | 171 | 2.6 | 9.6 | 0.00 | 0.00 | 0.00 | 70 | 1010.3 |
| 20260506141004 | 65 | 193 | 0.0 | 9.6 | 0.00 | 0.00 | 0.00 | 71 | 1010.2 |
| 20260506140504 | 65 | 202 | 0.9 | 13.9 | 0.00 | 0.00 | 0.00 | 71 | 1010.1 |
| 20260506140018 | 65 | 194 | 5.2 | 13.9 | 0.00 | 0.00 | 0.00 | 71 | 1010.2 |
| 20260506135504 | 65 | 207 | 5.2 | 12.2 | 0.00 | 0.00 | 0.00 | 71 | 1010.2 |
| 20260506135008 | 65 | 177 | 3.5 | 10.4 | 0.00 | 0.00 | 0.00 | 70 | 1010.0 |
| 20260506134517 | 65 | 271 | 2.6 | 10.4 | 0.00 | 0.00 | 0.00 | 70 | 1010.0 |
| 20260506134003 | 65 | 176 | 3.5 | 11.3 | 0.00 | 0.00 | 0.00 | 72 | 1010.0 |
| 20260506133507 | 65 | 178 | 4.3 | 14.8 | 0.00 | 0.00 | 0.00 | 72 | 1010.1 |
| 20260506133009 | 64 | 186 | 4.3 | 14.8 | 0.00 | 0.00 | 0.00 | 74 | 1010.1 |
| 20260506132508 | 64 | 157 | 1.7 | 8.7 | 0.00 | 0.00 | 0.00 | 73 | 1010.1 |
| 20260506132007 | 64 | 238 | 1.7 | 8.7 | 0.00 | 0.00 | 0.00 | 74 | 1010.3 |
| 20260506131514 | 64 | 224 | 0.0 | 13.9 | 0.00 | 0.00 | 0.00 | 75 | 1010.4 |
| 20260506131007 | 63 | 201 | 1.7 | 13.9 | 0.00 | 0.00 | 0.00 | 75 | 1010.5 |
| 20260506130513 | 63 | 202 | 5.2 | 9.6 | 0.00 | 0.00 | 0.00 | 75 | 1010.6 |
| 20260506130018 | 62 | 179 | 0.0 | 10.4 | 0.00 | 0.00 | 0.00 | 77 | 1010.7 |
| 20260506125504 | 62 | 124 | 5.2 | 10.4 | 0.00 | 0.00 | 0.00 | 77 | 1010.7 |
| 20260506125007 | 62 | 154 | 0.0 | 7.8 | 0.00 | 0.00 | 0.00 | 78 | 1010.8 |
| 20260506124518 | 61 | 180 | 1.7 | 10.4 | 0.00 | 0.00 | 0.00 | 78 | 1010.8 |
| 20260506124005 | 61 | 188 | 0.0 | 10.4 | 0.00 | 0.00 | 0.00 | 78 | 1010.8 |
| 20260506123506 | 61 | 104 | 2.6 | 9.6 | 0.00 | 0.00 | 0.00 | 78 | 1010.8 |
| 20260506123018 | 61 | 181 | 2.6 | 9.6 | 0.00 | 0.00 | 0.00 | 78 | 1010.9 |
| 20260506122502 | 61 | 148 | 0.0 | 9.6 | 0.00 | 0.00 | 0.00 | 79 | 1010.9 |
| 20260506122006 | 61 | 159 | 0.0 | 9.6 | 0.00 | 0.00 | 0.00 | 79 | 1011.0 |
| 20260506121511 | 61 | 172 | 2.6 | 10.4 | 0.00 | 0.00 | 0.00 | 79 | 1011.0 |
| 20260506121006 | 60 | 195 | 1.7 | 13.9 | 0.00 | 0.00 | 0.00 | 79 | 1011.0 |
| 20260506120507 | 60 | 164 | 2.6 | 13.9 | 0.00 | 0.00 | 0.00 | 79 | 1011.1 |
| 20260506120018 | 60 | 187 | 0.0 | 9.6 | 0.00 | 0.00 | 0.00 | 80 | 1011.0 |
| 20260506115509 | 60 | 192 | 0.0 | 7.8 | 0.00 | 0.00 | 0.00 | 80 | 1011.1 |
| 20260506115008 | 60 | 202 | 0.0 | 7.8 | 0.00 | 0.00 | 0.00 | 80 | 1010.9 |
| 20260506114522 | 60 | 123 | 1.7 | 10.4 | 0.00 | 0.00 | 0.00 | 80 | 1010.9 |
| 20260506114007 | 59 | 155 | 4.3 | 9.6 | 0.00 | 0.00 | 0.00 | 81 | 1010.8 |
| 20260506113505 | 59 | 188 | 0.0 | 9.6 | 0.00 | 0.00 | 0.00 | 81 | 1010.8 |
| 20260506113023 | 59 | 157 | 0.0 | 4.3 | 0.00 | 0.00 | 0.00 | 81 | 1011.0 |
| 20260506112506 | 58 | 179 | 0.0 | 8.7 | 0.00 | 0.00 | 0.00 | 82 | 1011.2 |
| 20260506112006 | 58 | 166 | 0.0 | 8.7 | 0.00 | 0.00 | 0.00 | 82 | 1011.1 |
| 20260506111519 | 57 | 254 | 0.9 | 8.7 | 0.00 | 0.00 | 0.00 | 82 | 1011.2 |
| 20260506111004 | 57 | 186 | 0.0 | 7.8 | 0.00 | 0.00 | 0.00 | 82 | 1011.1 |
| 20260506110507 | 57 | 171 | 0.9 | 7.8 | 0.00 | 0.00 | 0.00 | 82 | 1011.0 |
| 20260506110026 | 57 | 180 | 0.0 | 7.0 | 0.00 | 0.00 | 0.00 | 83 | 1011.1 |
| 20260506105506 | 57 | 191 | 0.0 | 7.0 | 0.00 | 0.00 | 0.00 | 83 | 1011.0 |
| 20260506105008 | 57 | 188 | 0.9 | 6.1 | 0.00 | 0.00 | 0.00 | 83 | 1011.1 |
| 20260506104519 | 56 | 208 | 0.0 | 7.0 | 0.00 | 0.00 | 0.00 | 83 | 1010.9 |
| 20260506104008 | 56 | 204 | 0.0 | 7.0 | 0.00 | 0.00 | 0.00 | 83 | 1011.0 |
| 20260506103506 | 56 | 197 | 0.0 | 4.3 | 0.00 | 0.00 | 0.00 | 83 | 1011.0 |
| 20260506103024 | 56 | 199 | 0.0 | 6.1 | 0.00 | 0.00 | 0.00 | 83 | 1010.9 |
| 20260506102507 | 56 | 196 | 0.9 | 6.1 | 0.00 | 0.00 | 0.00 | 83 | 1010.9 |
| 20260506102008 | 56 | 190 | 0.0 | 5.2 | 0.00 | 0.00 | 0.00 | 83 | 1011.0 |
| 20260506101524 | 56 | 209 | 0.0 | 6.1 | 0.00 | 0.00 | 0.00 | 82 | 1010.9 |
| 20260506101006 | 57 | 196 | 0.0 | 6.1 | 0.00 | 0.00 | 0.00 | 82 | 1010.8 |
| 20260506100506 | 57 | 171 | 1.7 | 7.0 | 0.00 | 0.00 | 0.00 | 82 | 1010.9 |
| 20260506100026 | 56 | 202 | 2.6 | 7.0 | 0.00 | 0.00 | 0.00 | 82 | 1010.9 |
| 20260506095508 | 56 | 207 | 0.9 | 7.0 | 0.00 | 0.00 | 0.00 | 82 | 1010.8 |
| 20260506095009 | 56 | 204 | 0.0 | 8.7 | 0.00 | 0.00 | 0.00 | 82 | 1010.8 |
| 20260506094517 | 56 | 181 | 0.9 | 8.7 | 0.00 | 0.00 | 0.00 | 82 | 1010.9 |
| 20260506094008 | 56 | 182 | 1.7 | 5.2 | 0.00 | 0.00 | 0.00 | 83 | 1010.8 |
| 20260506093506 | 56 | 194 | 0.0 | 4.3 | 0.00 | 0.00 | 0.00 | 83 | 1010.9 |
| 20260506093029 | 56 | 187 | 0.0 | 4.3 | 0.00 | 0.00 | 0.00 | 82 | 1010.9 |
| 20260506092509 | 56 | 197 | 0.0 | 6.1 | 0.00 | 0.00 | 0.00 | 82 | 1010.9 |
| 20260506092010 | 56 | 210 | 0.0 | 6.1 | 0.00 | 0.00 | 0.00 | 82 | 1010.9 |
| 20260506091508 | 56 | 192 | 0.0 | 4.3 | 0.00 | 0.00 | 0.00 | 82 | 1010.8 |
| 20260506091003 | 56 | 178 | 0.0 | 0.9 | 0.00 | 0.00 | 0.00 | 82 | 1010.8 |
| 20260506090504 | 56 | 196 | 0.0 | 5.2 | 0.00 | 0.00 | 0.00 | 82 | 1010.8 |
| 20260506090026 | 56 | 197 | 0.9 | 5.2 | 0.00 | 0.00 | 0.00 | 82 | 1010.9 |
| 20260506085503 | 56 | 202 | 1.7 | 5.2 | 0.00 | 0.00 | 0.00 | 82 | 1011.0 |
| 20260506085003 | 56 | 163 | 0.0 | 4.3 | 0.00 | 0.00 | 0.00 | 82 | 1011.0 |
| 20260506084516 | 56 | 201 | 0.0 | 5.2 | 0.00 | 0.00 | 0.00 | 82 | 1011.0 |
| 20260506084005 | 56 | 190 | 0.0 | 5.2 | 0.00 | 0.00 | 0.00 | 81 | 1011.0 |
| 20260506083506 | 57 | 232 | 0.0 | 5.2 | 0.00 | 0.00 | 0.00 | 81 | 1011.0 |
| 20260506083019 | 57 | 200 | 0.0 | 5.2 | 0.00 | 0.00 | 0.00 | 81 | 1011.0 |
| 20260506082507 | 57 | 168 | 0.0 | 7.0 | 0.00 | 0.00 | 0.00 | 81 | 1011.0 |
| 20260506082002 | 57 | 203 | 0.0 | 7.0 | 0.00 | 0.00 | 0.00 | 81 | 1011.1 |
| 20260506081504 | 57 | 198 | 0.0 | 6.1 | 0.00 | 0.00 | 0.00 | 81 | 1011.1 |
| 20260506081003 | 57 | 215 | 0.0 | 6.1 | 0.00 | 0.00 | 0.00 | 81 | 1011.2 |
| 20260506080504 | 57 | 186 | 0.0 | 6.1 | 0.00 | 0.00 | 0.00 | 81 | 1011.2 |
| 20260506073504 | 57 | 209 | 0.0 | 3.5 | 0.00 | 0.00 | 0.00 | 80 | 1011.2 |
| 20260506073016 | 57 | 223 | 0.9 | 4.3 | 0.00 | 0.00 | 0.00 | 80 | 1011.2 |
| 20260506072506 | 57 | 181 | 0.0 | 4.3 | 0.00 | 0.00 | 0.00 | 80 | 1011.2 |
| 20260506072010 | 57 | 188 | 0.9 | 4.3 | 0.00 | 0.00 | 0.00 | 79 | 1011.3 |
| 20260506071529 | 57 | 134 | 1.7 | 7.8 | 0.00 | 0.00 | 0.00 | 79 | 1011.2 |
| 20260506071012 | 57 | 171 | 1.7 | 7.8 | 0.00 | 0.00 | 0.00 | 79 | 1011.2 |
| 20260506070501 | 57 | 206 | 0.0 | 2.6 | 0.00 | 0.00 | 0.00 | 79 | 1011.2 |
| 20260506062505 | 59 | 167 | 0.0 | 7.8 | 0.00 | 0.00 | 0.00 | 77 | 1011.0 |
| 20260506062006 | 59 | 192 | 1.7 | 6.1 | 0.00 | 0.00 | 0.00 | 77 | 1011.1 |
| 20260506061529 | 59 | 204 | 0.9 | 7.0 | 0.00 | 0.00 | 0.00 | 77 | 1011.1 |
| 20260506061007 | 59 | 207 | 0.9 | 7.8 | 0.00 | 0.00 | 0.00 | 77 | 1011.1 |
| 20260506060508 | 59 | 107 | 2.6 | 10.4 | 0.00 | 0.00 | 0.00 | 76 | 1011.0 |
| 20260506051005 | 61 | 194 | 0.0 | 7.8 | 0.00 | 0.00 | 0.00 | 74 | 1011.4 |
| 20260506050511 | 61 | 180 | 0.9 | 9.6 | 0.00 | 0.00 | 0.00 | 74 | 1011.4 |
| 20260506045007 | 61 | 230 | 0.0 | 8.7 | 0.00 | 0.00 | 0.00 | 73 | 1011.6 |
| 20260506044533 | 61 | 212 | 4.3 | 8.7 | 0.00 | 0.00 | 0.00 | 73 | 1011.5 |
| 20260506044011 | 61 | 197 | 1.7 | 7.0 | 0.00 | 0.00 | 0.00 | 72 | 1011.5 |
| 20260506043503 | 61 | 157 | 0.0 | 7.0 | 0.00 | 0.00 | 0.00 | 72 | 1011.5 |
| 20260506043007 | 61 | 186 | 1.7 | 7.0 | 0.00 | 0.00 | 0.00 | 71 | 1011.5 |
| 20260506042505 | 62 | 232 | 0.0 | 11.3 | 0.00 | 0.00 | 0.00 | 71 | 1011.6 |
| 20260506042003 | 62 | 202 | 3.5 | 11.3 | 0.00 | 0.00 | 0.00 | 70 | 1011.5 |
| 20260506041517 | 62 | 119 | 0.9 | 10.4 | 0.00 | 0.00 | 0.00 | 70 | 1011.5 |
| 20260506041002 | 62 | 211 | 0.9 | 9.6 | 0.00 | 0.00 | 0.00 | 69 | 1011.6 |
| 20260506040506 | 62 | 196 | 4.3 | 9.6 | 0.00 | 0.00 | 0.00 | 69 | 1011.5 |
| 20260506040037 | 62 | 165 | 1.7 | 7.0 | 0.00 | 0.00 | 0.00 | 69 | 1011.6 |
| 20260506035509 | 62 | 159 | 1.7 | 7.0 | 0.00 | 0.00 | 0.00 | 69 | 1011.6 |
| 20260506035009 | 62 | 198 | 0.9 | 7.0 | 0.00 | 0.00 | 0.00 | 68 | 1011.6 |
| 20260506034520 | 62 | 178 | 0.9 | 8.7 | 0.00 | 0.00 | 0.00 | 68 | 1011.6 |
| 20260506034009 | 62 | 191 | 0.9 | 9.6 | 0.00 | 0.00 | 0.00 | 67 | 1011.6 |
| 20260506033510 | 62 | 197 | 1.7 | 9.6 | 0.00 | 0.00 | 0.00 | 67 | 1011.6 |
| 20260506033023 | 62 | 206 | 1.7 | 9.6 | 0.00 | 0.00 | 0.00 | 67 | 1011.7 |
| 20260506032509 | 62 | 204 | 5.2 | 9.6 | 0.00 | 0.00 | 0.00 | 67 | 1011.5 |
| 20260506032003 | 62 | 202 | 0.9 | 8.7 | 0.00 | 0.00 | 0.00 | 67 | 1011.5 |
| 20260506031529 | 62 | 132 | 3.5 | 8.7 | 0.00 | 0.00 | 0.00 | 67 | 1011.5 |
| 20260506031006 | 62 | 187 | 2.6 | 8.7 | 0.00 | 0.00 | 0.00 | 67 | 1011.4 |
| 20260506030503 | 62 | 159 | 2.6 | 8.7 | 0.00 | 0.00 | 0.00 | 67 | 1011.5 |
| 20260506030015 | 62 | 183 | 0.0 | 9.6 | 0.00 | 0.00 | 0.00 | 67 | 1011.6 |
| 20260506025507 | 62 | 196 | 0.9 | 9.6 | 0.00 | 0.00 | 0.00 | 67 | 1011.5 |
| 20260506025006 | 62 | 205 | 3.5 | 9.6 | 0.00 | 0.00 | 0.00 | 67 | 1011.5 |
| 20260506024520 | 62 | 200 | 2.6 | 7.8 | 0.00 | 0.00 | 0.00 | 68 | 1011.5 |
| 20260506024006 | 62 | 197 | 2.6 | 7.0 | 0.00 | 0.00 | 0.00 | 68 | 1011.6 |
| 20260506023510 | 62 | 199 | 0.9 | 7.0 | 0.00 | 0.00 | 0.00 | 68 | 1011.5 |
| 20260506023025 | 61 | 187 | 2.6 | 7.0 | 0.00 | 0.00 | 0.00 | 68 | 1011.6 |
| 20260506022510 | 61 | 216 | 0.0 | 7.0 | 0.00 | 0.00 | 0.00 | 68 | 1011.6 |
| 20260506022011 | 61 | 211 | 0.9 | 7.8 | 0.00 | 0.00 | 0.00 | 68 | 1011.5 |
| 20260506021526 | 61 | 214 | 0.0 | 7.8 | 0.00 | 0.00 | 0.00 | 68 | 1011.5 |
| 20260506021012 | 61 | 202 | 0.0 | 7.8 | 0.00 | 0.00 | 0.00 | 68 | 1011.6 |
| 20260506020512 | 61 | 190 | 0.9 | 7.8 | 0.00 | 0.00 | 0.00 | 68 | 1011.5 |
| 20260506020014 | 61 | 144 | 1.7 | 7.0 | 0.00 | 0.00 | 0.00 | 68 | 1011.6 |
| 20260506015502 | 61 | 176 | 0.9 | 7.0 | 0.00 | 0.00 | 0.00 | 68 | 1011.5 |
| 20260506015004 | 61 | 187 | 1.7 | 7.0 | 0.00 | 0.00 | 0.00 | 68 | 1011.5 |
| 20260506014518 | 61 | 172 | 0.9 | 7.0 | 0.00 | 0.00 | 0.00 | 67 | 1011.5 |
| 20260506014006 | 61 | 209 | 0.9 | 10.4 | 0.00 | 0.00 | 0.00 | 67 | 1011.5 |
| 20260506013509 | 61 | 170 | 0.0 | 10.4 | 0.00 | 0.00 | 0.00 | 67 | 1011.3 |
| 20260506013024 | 61 | 179 | 1.7 | 7.0 | 0.00 | 0.00 | 0.00 | 67 | 1011.2 |
| 20260506012508 | 61 | 150 | 0.9 | 7.0 | 0.00 | 0.00 | 0.00 | 67 | 1011.1 |
| 20260506012010 | 61 | 194 | 0.0 | 5.2 | 0.00 | 0.00 | 0.00 | 67 | 1011.1 |
| 20260506011528 | 61 | 187 | 0.0 | 6.1 | 0.00 | 0.00 | 0.00 | 66 | 1011.1 |